QFA4899 YMML-YSCB

Flight info

Callsign QFA4899
Flight time 0h 43m
Altitude 33000
Route DCT EBONY POLI9A
Aircraft B744/H-SDE1FGHIJ1RWXYZ/LB1

Departure

Time 2026-05-05 23:27
Airport Melbourne Airport (YMML)

Arrival

Time 2026-05-06 00:11
Airport Canberra Airport (YSCB)
Time Latitude Longitude Altitude Speed Heading
2026-05-05 23:02 -37.67823 144.84719 449 ft 0 kts 129°
2026-05-05 23:15 -37.67817 144.84709 449 ft 4 kts 129°
2026-05-05 23:16 -37.67798 144.84678 449 ft 5 kts 129°
2026-05-05 23:16 -37.67777 144.84648 449 ft 5 kts 141°
2026-05-05 23:16 -37.67754 144.84629 449 ft 2 kts 150°
2026-05-05 23:16 -37.67752 144.84628 449 ft 0 kts 150°
2026-05-05 23:19 -37.67754 144.84630 449 ft 2 kts 150°
2026-05-05 23:20 -37.67786 144.84651 449 ft 5 kts 171°
2026-05-05 23:20 -37.67834 144.84628 449 ft 10 kts 207°
2026-05-05 23:20 -37.67912 144.84617 449 ft 13 kts 172°
2026-05-05 23:20 -37.68013 144.84635 449 ft 16 kts 171°
2026-05-05 23:21 -37.68129 144.84659 449 ft 18 kts 171°
2026-05-05 23:21 -37.68233 144.84680 449 ft 14 kts 171°
2026-05-05 23:21 -37.68307 144.84689 449 ft 11 kts 187°
2026-05-05 23:21 -37.68377 144.84641 449 ft 11 kts 244°
2026-05-05 23:22 -37.68387 144.84556 449 ft 9 kts 278°
2026-05-05 23:22 -37.68386 144.84468 449 ft 12 kts 251°
2026-05-05 23:22 -37.68444 144.84382 449 ft 12 kts 216°
2026-05-05 23:22 -37.68500 144.84335 449 ft 11 kts 211°
2026-05-05 23:23 -37.68536 144.84298 449 ft 8 kts 245°
2026-05-05 23:23 -37.68540 144.84284 449 ft 0 kts 252°
2026-05-05 23:25 -37.68550 144.84245 449 ft 7 kts 253°
2026-05-05 23:25 -37.68559 144.84166 449 ft 11 kts 265°
2026-05-05 23:26 -37.68555 144.84099 449 ft 5 kts 317°
2026-05-05 23:26 -37.68510 144.84083 449 ft 8 kts 356°
2026-05-05 23:26 -37.68406 144.84070 449 ft 33 kts 352°
2026-05-05 23:26 -37.67883 144.83965 449 ft 115 kts 352°
2026-05-05 23:27 -37.66880 144.83774 622 ft 162 kts 352°
2026-05-05 23:27 -37.65752 144.83551 1221 ft 166 kts 352°
2026-05-05 23:27 -37.64593 144.83330 1885 ft 174 kts 352°
2026-05-05 23:27 -37.63342 144.83096 2530 ft 189 kts 352°
2026-05-05 23:28 -37.62001 144.82841 2843 ft 203 kts 352°
2026-05-05 23:28 -37.60550 144.82563 3174 ft 219 kts 352°
2026-05-05 23:28 -37.58984 144.82539 3562 ft 235 kts 12°
2026-05-05 23:28 -37.57397 144.83273 4112 ft 251 kts 23°
2026-05-05 23:29 -37.55801 144.84206 5016 ft 256 kts 25°
2026-05-05 23:29 -37.54198 144.85210 5965 ft 259 kts 25°
2026-05-05 23:29 -37.52573 144.86241 6915 ft 264 kts 25°
2026-05-05 23:29 -37.50919 144.87277 7861 ft 267 kts 24°
2026-05-05 23:30 -37.49235 144.88317 8802 ft 275 kts 24°
2026-05-05 23:30 -37.47522 144.89364 9736 ft 276 kts 23°
2026-05-05 23:30 -37.45769 144.90429 10547 ft 287 kts 22°
2026-05-05 23:30 -37.43962 144.91694 11105 ft 310 kts 34°
2026-05-05 23:31 -37.42407 144.93714 11643 ft 334 kts 47°
2026-05-05 23:31 -37.40960 144.96102 12136 ft 352 kts 51°
2026-05-05 23:31 -37.39510 144.98691 12698 ft 368 kts 52°
2026-05-05 23:31 -37.38048 145.01386 13493 ft 376 kts 52°
2026-05-05 23:32 -37.36561 145.04132 14359 ft 384 kts 52°
2026-05-05 23:32 -37.35024 145.06925 15277 ft 392 kts 52°
2026-05-05 23:32 -37.33450 145.09758 16221 ft 397 kts 52°
2026-05-05 23:32 -37.31841 145.12629 17138 ft 404 kts 51°
2026-05-05 23:33 -37.30199 145.15536 18025 ft 411 kts 51°
2026-05-05 23:33 -37.28525 145.18484 18891 ft 418 kts 51°
2026-05-05 23:33 -37.26826 145.21471 19729 ft 416 kts 51°
2026-05-05 23:33 -37.25099 145.24504 20549 ft 430 kts 51°
2026-05-05 23:34 -37.23346 145.27579 21349 ft 436 kts 51°
2026-05-05 23:34 -37.21566 145.30696 22129 ft 441 kts 51°
2026-05-05 23:34 -37.19763 145.33856 22893 ft 447 kts 51°
2026-05-05 23:34 -37.17935 145.37057 23637 ft 455 kts 51°
2026-05-05 23:35 -37.16082 145.40299 24365 ft 460 kts 51°
2026-05-05 23:35 -37.14202 145.43581 25076 ft 467 kts 51°
2026-05-05 23:35 -37.12296 145.46904 25773 ft 472 kts 51°
2026-05-05 23:35 -37.10369 145.50258 26455 ft 479 kts 51°
2026-05-05 23:36 -37.08416 145.53655 27137 ft 484 kts 51°
2026-05-05 23:36 -37.06447 145.57075 27891 ft 475 kts 51°
2026-05-05 23:36 -37.04477 145.60500 28688 ft 488 kts 51°
2026-05-05 23:36 -37.02502 145.63932 29504 ft 486 kts 51°
2026-05-05 23:37 -37.00526 145.67364 30353 ft 486 kts 51°
2026-05-05 23:37 -36.98550 145.70792 31222 ft 484 kts 50°
2026-05-05 23:37 -36.96600 145.74169 32053 ft 486 kts 50°
2026-05-05 23:37 -36.94621 145.77591 32871 ft 485 kts 50°
2026-05-05 23:38 -36.92638 145.81014 33196 ft 485 kts 50°
2026-05-05 23:38 -36.90669 145.84412 33248 ft 482 kts 50°
2026-05-05 23:38 -36.86766 145.91137 33244 ft 476 kts 50°
2026-05-05 23:39 -36.82874 145.97827 33243 ft 476 kts 50°
2026-05-05 23:39 -36.78965 146.04513 33243 ft 477 kts 50°
2026-05-05 23:40 -36.75052 146.11205 33243 ft 478 kts 50°
2026-05-05 23:40 -36.71138 146.17899 33243 ft 485 kts 50°
2026-05-05 23:41 -36.67225 146.24579 33243 ft 475 kts 50°
2026-05-05 23:41 -36.63305 146.31257 33243 ft 478 kts 50°
2026-05-05 23:42 -36.59379 146.37931 33243 ft 478 kts 50°
2026-05-05 23:42 -36.55451 146.44598 33243 ft 478 kts 50°
2026-05-05 23:43 -36.51517 146.51260 33243 ft 477 kts 50°
2026-05-05 23:43 -36.47586 146.57902 33243 ft 477 kts 50°
2026-05-05 23:44 -36.43646 146.64545 33243 ft 476 kts 50°
2026-05-05 23:44 -36.39699 146.71184 33243 ft 479 kts 50°
2026-05-05 23:45 -36.35757 146.77806 33243 ft 475 kts 50°
2026-05-05 23:45 -36.31813 146.84413 33243 ft 477 kts 50°
2026-05-05 23:46 -36.27857 146.91026 33243 ft 478 kts 50°
2026-05-05 23:46 -36.23897 146.97634 33191 ft 478 kts 50°
2026-05-05 23:47 -36.21922 147.00925 32791 ft 474 kts 50°
2026-05-05 23:47 -36.19958 147.04194 32203 ft 471 kts 50°
2026-05-05 23:47 -36.18145 147.07580 31695 ft 470 kts 58°
2026-05-05 23:47 -36.16813 147.11272 31358 ft 467 kts 66°
2026-05-05 23:48 -36.15703 147.15089 31038 ft 476 kts 69°
2026-05-05 23:48 -36.14653 147.18992 30589 ft 478 kts 70°
2026-05-05 23:48 -36.13624 147.22891 30111 ft 473 kts 70°
2026-05-05 23:48 -36.12602 147.26711 29746 ft 462 kts 69°
2026-05-05 23:49 -36.11584 147.30417 29653 ft 451 kts 69°
2026-05-05 23:49 -36.10534 147.34154 29375 ft 467 kts 68°
2026-05-05 23:49 -36.09445 147.37960 28877 ft 468 kts 68°
2026-05-05 23:49 -36.08379 147.41669 28402 ft 462 kts 68°
2026-05-05 23:50 -36.07322 147.45344 28024 ft 449 kts 68°
2026-05-05 23:50 -36.06283 147.48954 27657 ft 444 kts 68°
2026-05-05 23:50 -36.05240 147.52564 27223 ft 448 kts 68°
2026-05-05 23:50 -36.04200 147.56163 26778 ft 443 kts 68°
2026-05-05 23:51 -36.03171 147.59721 26400 ft 438 kts 68°
2026-05-05 23:51 -36.02150 147.63249 26015 ft 435 kts 68°
2026-05-05 23:51 -36.01133 147.66760 25586 ft 433 kts 68°
2026-05-05 23:51 -36.00124 147.70245 25190 ft 428 kts 68°
2026-05-05 23:52 -35.99122 147.73698 24803 ft 426 kts 68°
2026-05-05 23:52 -35.98126 147.77126 24381 ft 423 kts 68°
2026-05-05 23:52 -35.97137 147.80524 23994 ft 418 kts 68°
2026-05-05 23:52 -35.96157 147.83890 23628 ft 416 kts 68°
2026-05-05 23:53 -35.95177 147.87246 23212 ft 417 kts 68°
2026-05-05 23:53 -35.94203 147.90583 22805 ft 410 kts 68°
2026-05-05 23:53 -35.93240 147.93871 22455 ft 406 kts 68°
2026-05-05 23:53 -35.92283 147.97139 22075 ft 406 kts 68°
2026-05-05 23:54 -35.91326 148.00401 21645 ft 403 kts 68°
2026-05-05 23:54 -35.90390 148.03588 21265 ft 397 kts 68°
2026-05-05 23:54 -35.89457 148.06765 20931 ft 396 kts 68°
2026-05-05 23:54 -35.88524 148.09934 20538 ft 394 kts 68°
2026-05-05 23:55 -35.87590 148.13097 20117 ft 392 kts 68°
2026-05-05 23:55 -35.86667 148.16222 19743 ft 386 kts 68°
2026-05-05 23:55 -35.85751 148.19321 19372 ft 384 kts 68°
2026-05-05 23:55 -35.84840 148.22401 18970 ft 380 kts 68°
2026-05-05 23:56 -35.83919 148.25505 18381 ft 392 kts 68°
2026-05-05 23:56 -35.82978 148.28668 17874 ft 392 kts 68°
2026-05-05 23:56 -35.82057 148.31775 17542 ft 380 kts 68°
2026-05-05 23:56 -35.81166 148.34793 17229 ft 371 kts 68°
2026-05-05 23:57 -35.80290 148.37764 16842 ft 368 kts 68°
2026-05-05 23:57 -35.79414 148.40726 16401 ft 365 kts 68°
2026-05-05 23:57 -35.78547 148.43650 16042 ft 361 kts 68°
2026-05-05 23:57 -35.77691 148.46518 15731 ft 356 kts 68°
2026-05-05 23:58 -35.76839 148.49365 15386 ft 354 kts 68°
2026-05-05 23:58 -35.75983 148.52213 14984 ft 353 kts 68°
2026-05-05 23:58 -35.75138 148.55030 14638 ft 349 kts 68°
2026-05-05 23:58 -35.74301 148.57827 14309 ft 349 kts 68°
2026-05-05 23:59 -35.73465 148.60616 13920 ft 348 kts 68°
2026-05-05 23:59 -35.72641 148.63386 13562 ft 342 kts 68°
2026-05-05 23:59 -35.71830 148.66129 13235 ft 341 kts 68°
2026-05-05 23:59 -35.71022 148.68861 12866 ft 338 kts 68°
2026-05-06 00:00 -35.70219 148.71575 12498 ft 337 kts 68°
2026-05-06 00:00 -35.69423 148.74258 12181 ft 333 kts 68°
2026-05-06 00:00 -35.68629 148.76927 11851 ft 333 kts 68°
2026-05-06 00:00 -35.67836 148.79589 11467 ft 331 kts 68°
2026-05-06 00:01 -35.67313 148.81341 11230 ft 328 kts 68°
2026-05-06 00:01 -35.66533 148.83963 10927 ft 327 kts 68°
2026-05-06 00:01 -35.65510 148.87415 10581 ft 318 kts 68°
2026-05-06 00:01 -35.64771 148.89896 10458 ft 302 kts 68°
2026-05-06 00:02 -35.64068 148.92260 10328 ft 288 kts 68°
2026-05-06 00:02 -35.63607 148.93808 10200 ft 284 kts 68°
2026-05-06 00:02 -35.62713 148.96808 9894 ft 283 kts 68°
2026-05-06 00:02 -35.62249 148.98357 9626 ft 288 kts 68°
2026-05-06 00:03 -35.61553 149.00667 9237 ft 286 kts 68°
2026-05-06 00:03 -35.60866 149.02949 8885 ft 285 kts 68°
2026-05-06 00:03 -35.60178 149.05232 8540 ft 285 kts 68°
2026-05-06 00:03 -35.59482 149.07506 8195 ft 283 kts 67°
2026-05-06 00:04 -35.58777 149.09728 7866 ft 282 kts 67°
2026-05-06 00:04 -35.58067 149.11935 7521 ft 272 kts 66°
2026-05-06 00:04 -35.57383 149.14056 7178 ft 256 kts 66°
2026-05-06 00:04 -35.56731 149.16030 6861 ft 243 kts 63°
2026-05-06 00:05 -35.54460 149.18602 6278 ft 209 kts 22°
2026-05-06 00:05 -35.53128 149.19105 6008 ft 189 kts 10°
2026-05-06 00:05 -35.51864 149.19323 5767 ft 183 kts
2026-05-06 00:06 -35.50604 149.19411 5537 ft 179 kts
2026-05-06 00:06 -35.49375 149.19439 5309 ft 175 kts 360°
2026-05-06 00:06 -35.48162 149.19446 5079 ft 173 kts 359°
2026-05-06 00:06 -35.46962 149.19447 4852 ft 173 kts 359°
2026-05-06 00:07 -35.45767 149.19446 4629 ft 171 kts 359°
2026-05-06 00:07 -35.44574 149.19444 4404 ft 170 kts 359°
2026-05-06 00:07 -35.43429 149.19444 4193 ft 160 kts 359°
2026-05-06 00:07 -35.42335 149.19444 3979 ft 155 kts 359°
2026-05-06 00:08 -35.41261 149.19444 3774 ft 154 kts 359°
2026-05-06 00:08 -35.40195 149.19444 3571 ft 152 kts 359°
2026-05-06 00:08 -35.39145 149.19450 3371 ft 150 kts 358°
2026-05-06 00:08 -35.38090 149.19441 3172 ft 152 kts 359°
2026-05-06 00:09 -35.37029 149.19441 2972 ft 157 kts 359°
2026-05-06 00:09 -35.35908 149.19441 2752 ft 159 kts 359°
2026-05-06 00:09 -35.34812 149.19442 2534 ft 155 kts 360°
2026-05-06 00:09 -35.33752 149.19447 2343 ft 152 kts
2026-05-06 00:10 -35.32695 149.19446 2146 ft 152 kts 359°
2026-05-06 00:10 -35.31620 149.19439 1944 ft 158 kts 359°
2026-05-06 00:10 -35.30598 149.19441 1901 ft 121 kts 360°
2026-05-06 00:10 -35.29994 149.19442 1901 ft 55 kts
2026-05-06 00:11 -35.29753 149.19446 1901 ft 30 kts
2026-05-06 00:11 -35.29549 149.19443 1901 ft 29 kts 359°
2026-05-06 00:11 -35.29354 149.19435 1901 ft 27 kts 359°
2026-05-06 00:11 -35.29232 149.19434 1901 ft 16 kts 359°
2026-05-06 00:12 -35.29192 149.19434 1901 ft 3 kts
2026-05-06 00:12 -35.29139 149.19434 1901 ft 10 kts 341°
2026-05-06 00:12 -35.29088 149.19417 1901 ft 5 kts 30°
2026-05-06 00:12 -35.29075 149.19448 1901 ft 5 kts 106°
2026-05-06 00:13 -35.29107 149.19470 1901 ft 8 kts 204°
2026-05-06 00:13 -35.29186 149.19443 1901 ft 16 kts 181°
2026-05-06 00:13 -35.29328 149.19440 1901 ft 24 kts 179°
2026-05-06 00:13 -35.29501 149.19444 1901 ft 25 kts 179°
2026-05-06 00:14 -35.29672 149.19445 1901 ft 24 kts 180°
2026-05-06 00:14 -35.29836 149.19444 1901 ft 24 kts 180°
2026-05-06 00:14 -35.29999 149.19445 1901 ft 23 kts 180°
2026-05-06 00:14 -35.30157 149.19444 1901 ft 22 kts 181°
2026-05-06 00:15 -35.30311 149.19442 1901 ft 22 kts 180°
2026-05-06 00:15 -35.30460 149.19442 1901 ft 21 kts 180°
2026-05-06 00:15 -35.30604 149.19443 1901 ft 20 kts 180°
2026-05-06 00:15 -35.30744 149.19443 1901 ft 20 kts 180°
2026-05-06 00:16 -35.30865 149.19444 1901 ft 10 kts 180°
2026-05-06 00:16 -35.30932 149.19444 1901 ft 10 kts 185°
2026-05-06 00:16 -35.30970 149.19381 1901 ft 11 kts 270°
2026-05-06 00:16 -35.30970 149.19289 1901 ft 9 kts 275°
2026-05-06 00:17 -35.30928 149.19240 1901 ft 10 kts 353°
2026-05-06 00:17 -35.30858 149.19239 1901 ft 10 kts
2026-05-06 00:17 -35.30788 149.19240 1901 ft 10 kts
2026-05-06 00:17 -35.30722 149.19240 1901 ft 9 kts 354°
2026-05-06 00:18 -35.30686 149.19225 1901 ft 3 kts 322°
2026-05-06 00:18 -35.30675 149.19192 1901 ft 5 kts 250°
2026-05-06 00:18 -35.30683 149.19170 1901 ft 0 kts 246°
2026-05-06 00:18 -35.30683 149.19171 1901 ft 0 kts 246°